Location: Unspecified
(52.5200°N, 0.0000°E)
Time: 02:33:00
(UTC+00:00)

PEGASUS DEB - Visible Passes

Search period start: 04 April 2026 00:00
Search period end: 14 April 2026 00:00
Orbit: 547 x 807 km, 81.9° (Epoch: 28 March)

Date Brightness Start Highest point End Pass type
(mag) Time Alt. Az. Time Alt. Az. Time Alt. Az.
4 Apr ? 20:55:30 36° SE 20:57:20 51° E 21:02:36 10° NNE visible
4 Apr ? 22:33:48 19° WSW 22:36:44 31° WNW 22:41:34 10° N visible
5 Apr ? 19:51:45 15° ESE 19:54:22 20° E 19:58:14 10° NE visible
5 Apr ? 21:30:03 29° SSW 21:32:55 77° WNW 21:38:23 10° N visible
5 Apr ? 23:09:37 10° W 23:13:02 17° NW 23:16:27 10° NNW visible
6 Apr ? 20:26:12 20° SSE 20:29:35 41° E 20:34:40 10° NNE visible
6 Apr ? 22:04:30 14° SW 22:08:48 38° WNW 22:13:51 10° N visible
7 Apr ? 19:23:27 10° ESE 19:26:43 16° E 19:29:59 10° NE visible
7 Apr ? 21:00:29 15° S 21:05:06 87° ESE 21:10:33 10° NNE visible
7 Apr ? 22:41:06 10° WSW 22:45:01 20° WNW 22:48:54 10° NNW visible
8 Apr ? 19:57:02 10° SSE 20:01:51 34° E 20:06:41 10° NNE visible
8 Apr ? 21:35:41 10° SW 21:40:54 46° WNW 21:46:06 10° N visible
8 Apr ? 23:20:52 10° NW 23:21:30 10° NW 23:22:08 10° NW visible
9 Apr ? 20:31:53 10° S 20:37:18 72° E 20:42:40 10° NNE visible
9 Apr ? 22:12:41 10° WSW 22:17:00 23° WNW 22:21:16 10° N visible
10 Apr ? 19:29:37 10° SE 19:34:08 28° E 19:38:37 10° NNE visible
10 Apr ? 21:07:39 10° SSW 21:13:01 56° WNW 21:18:18 10° N visible
10 Apr ? 22:51:13 10° WNW 22:53:23 12° NW 22:55:33 10° NNW visible
11 Apr ? 20:04:11 10° S 20:09:29 58° E 20:14:45 10° NNE visible
11 Apr ? 21:44:22 10° WSW 21:49:00 28° WNW 21:53:34 10° N visible
12 Apr ? 20:39:42 10° SSW 20:45:07 69° WNW 20:50:27 10° N visible
12 Apr ? 22:22:20 10° W 22:25:17 15° NW 22:28:13 10° NNW visible
13 Apr ? 19:36:32 10° SSE 19:41:42 46° E 19:46:46 10° NNE visible
13 Apr ? 21:16:08 10° SW 21:21:01 33° WNW 21:25:49 10° N visible
